Location: ????????
(55.3939°N, 37.4780°E)
Time: 05:20:00
(UTC+00:00)

COBE Rocket - Pass Details

Date: 14 April 2026
Orbit: 675 x 771 km, 97.1° (Epoch: 10 May)

Event Time Altitude Azimuth Distance (km) Brightness Sun altitude
Rises 17:07:01 0° 12° (NNE) 3,152 7.4 -5.3°
Reaches altitude 10° 17:09:17 10° 12° (NNE) 2,241 6.6 -5.6°
Maximum altitude 17:14:13 79° 287° (WNW) 766 4.2 -6.2°
Drops below altitude 10° 17:19:15 10° 201° (SSW) 2,281 6.4 -6.8°
Sets 17:21:34 0° 200° (SSW) 3,213 7.1 -7.1°
